Tracking 22879 objects as of 20-Apr-2021
HD Live streaming from Space Station
objects crossing your sky now

ONEWEB-0046

Track ONEWEB-0046 now!
10-day predictions
ONEWEB-0046 is classified as:


NORAD ID: 45447
Int'l Code: 2020-020Z
Perigee: 1,224.8 km
Apogee: 1,227.8 km
Inclination: 87.9 °
Period: 109.8 minutes
Semi major axis: 7597 km
RCS: Unknown
Launch date: March 21, 2020
Source: United Kingdom (UK)
Launch site: TYURATAM MISSILE AND SPACE COMPLEX (TTMTR)
aabbcc
Your satellite tracking list
Your tracking list is empty




NASA's NSSDC Master Catalog

Two Line Element Set (TLE):
1 45447U 20020Z   21110.52356739 -.00000179  00000-0 -54295-3 0  9990
2 45447  87.8948  35.5647 0001965  76.1423 283.9923 13.11037165 55727
Source of the keplerian elements: AFSPC